[[{"header":{"parameterUnit":"m.s-1","parameterCategory":1,"la1":30.2991,"la2":30.254,"lo1":-89.0895,"lo2":-89.0444,"dy":0.0017,"dx":0.0017,"nx":28,"ny":28,"refTime":"2024-06-11T03:00:00:Z","depth":0,"parameterNumber":2,"parameterNumberName":"U-component_of_WINDS"},"data":[0,0,0,0,0,0,0,0,0,0,0,0,0,0,0,0,0,0,0,0,0,0,0,0,0,0,0,0,0,0,0,0,0,0,0,0,0,0,0,0,0,0,0,0,0,0,0,0,0,0,0,0,0,0,0,0,0,0,-1.0257,-1.0257,0,-1.0302,-1.0302,-1.0303,-1.0241,-1.0239,-1.0237,-1.0234,-1.0286,-1.0289,-1.0292,0,0,0,0,0,0,0,0,0,0,0,0,0,-1.0123,-1.0126,-1.0257,-1.0257,-1.0258,-1.0302,-1.0302,-1.0303,-1.0241,-1.0239,-1.0236,-1.0233,-1.0285,-1.0289,-1.0293,0,0,0,0,0,0,0,0,0,0,0,0,0,-1.0176,-1.0127,-1.0257,-1.0232,-1.023,-1.0302,-1.0302,-1.0303,-1.0242,-1.0239,-1.0235,-1.0232,-1.0283,-1.0288,-1.0293,-1.0392,0,0,-1.0309,-1.0311,0,0,0,0,0,0,0,0,-1.0173,-1.0181,-1.0235,-1.0234,-1.0232,-1.0262,-1.0274,-1.0333,-1.0243,-1.0238,-1.0234,-1.0231,-1.0281,-1.0286,-1.0302,-1.0394,-1.0397,-1.031,-1.0313,-1.0315,-1.0316,0,0,0,0,0,0,0,-1.017,-1.0179,-1.0275,-1.0236,-1.0234,-1.0221,-1.0225,-1.0285,-1.0278,-1.0238,-1.0234,-1.0239,-1.0279,-1.0297,-1.0303,-1.0397,-1.0309,-1.0314,-1.0317,-1.0319,-1.0576,-1.058,0,0,0,0,0,0,-1.0168,-1.0176,-1.0273,-1.0276,-1.0194,-1.0226,-1.023,-1.0256,-1.0277,-1.0277,-1.0242,-1.0236,-1.029,-1.0297,-1.0304,-1.0423,-1.0315,-1.032,-1.0323,-1.0573,-1.0577,-1.0581,0,0,0,0,0,0,-1.0166,-1.0177,-1.0271,-1.0225,-1.0236,-1.0232,-1.0261,-1.0259,-1.0276,-1.028,-1.0279,-1.0261,-1.0288,-1.0297,-1.0371,-1.0424,-1.0322,-1.0327,-1.0568,-1.0574,-1.0579,-1.0661,0,0,0,0,0,0,-1.0162,-1.0177,-1.0213,-1.0226,-1.0239,-1.0336,-1.0264,-1.0262,-1.0285,-1.0278,-1.0298,-1.0298,-1.0286,-1.0364,-1.0376,-1.0429,-1.0331,-1.0564,-1.0571,-1.0577,-1.0653,-1.0668,-1.0681,0,0,0,0,0,-1.0157,-1.0234,-1.0215,-1.0227,-1.0283,-1.0339,-1.0346,-1.0329,-1.0289,-1.0327,-1.0329,-1.0297,-1.0416,-1.0372,-1.0385,-1.0441,-1.056,-1.0569,-1.0577,-1.0647,-1.0665,-1.0681,0,0,0,0,0,0,-1.0228,-1.0235,-1.0214,-1.0297,-1.0318,-1.0328,-1.0374,-1.0349,-1.0382,-1.0374,-1.0354,-1.0359,-1.0438,-1.0447,-1.0397,-1.0539,-1.0482,-1.0493,-1.053,-1.0548,-1.0562,-1.0558,-1.0335,0,0,0,0,0,-1.0253,-1.0296,-1.0301,-1.0374,-1.0385,-1.0378,-1.0402,-1.0387,-1.0408,-1.0417,-1.0425,-1.0449,-1.0491,-1.052,-1.0559,-1.0654,-1.0659,-1.0699,-1.0713,-1.0725,-1.0735,-1.0789,-1.0807,-1.0609,-1.0609,-1.0609,0,0,-1.0306,-1.0315,-1.0343,-1.0388,-1.0402,-1.0449,-1.0386,-1.0438,-1.0473,-1.0425,-1.0496,-1.0503,-1.0528,-1.0613,-1.0651,-1.0623,-1.0791,-1.0735,-1.0745,-1.0749,-1.0799,-1.0818,-1.0835,-1.0615,-1.0614,-1.0613,0,0,-1.0425,-1.0436,-1.0499,-1.0514,-1.0537,-1.0532,-1.0547,-1.0562,-1.0565,-1.0635,-1.0601,-1.0644,-1.0717,-1.0737,-1.0757,-1.0887,-1.086,-1.0901,-1.0974,-1.1026,-1.1042,-1.1056,-1.1104,-1.1121,-1.0911,-1.0911,-1.0911,0,-1.0488,-1.0556,-1.0535,-1.0589,-1.0611,-1.0569,-1.0635,-1.0651,-1.0686,-1.0703,-1.0671,-1.0764,-1.0777,-1.0868,-1.09,-1.0917,-1.0936,-1.0898,-1.1041,-1.1055,-1.1067,-1.1113,-1.1131,-1.0916,-1.0915,-1.0915,-1.0914,0,-1.0633,-1.0681,-1.0729,-1.0763,-1.079,-1.085,-1.084,-1.0871,-1.0855,-1.0855,-1.0928,-1.0943,-1.0986,-1.1007,-1.0991,-1.1096,-1.1078,-1.1044,-1.0986,-1.1091,-1.1134,-1.1152,-1.0923,-1.0921,-1.092,-1.0919,0,0,-1.0798,-1.082,-1.0838,-1.0854,-1.0876,-1.0914,-1.0973,-1.1014,-1.1042,-1.1068,-1.1119,-1.1183,-1.1152,-1.1174,-1.1161,-1.1207,-1.1312,-1.1167,-1.1168,-1.1195,-1.1431,-1.1458,-1.1478,-1.1294,-1.1297,-1.13,-1.143,0,-1.0919,-1.1019,-1.1003,-1.1101,-1.1146,-1.1108,-1.1161,-1.1181,-1.1183,-1.1224,-1.1226,-1.1273,-1.1227,-1.1241,-1.1285,-1.129,-1.1359,-1.128,-1.1343,-1.1346,-1.1339,-1.15,-1.1528,-1.165,-1.1446,-1.1449,-1.1451,0,-1.1073,-1.1104,-1.1206,-1.1223,-1.1242,-1.1288,-1.1326,-1.1364,-1.1388,-1.1387,-1.1413,-1.1393,-1.1455,-1.1396,-1.1482,-1.1429,-1.1454,-1.1461,-1.1465,-1.1471,-1.1405,-1.1512,-1.1688,-1.1707,-1.1477,-1.1475,-1.1473,0,-1.1185,-1.1252,-1.1323,-1.1337,-1.1358,-1.1393,-1.1404,-1.1424,-1.1451,-1.1484,-1.1502,-1.1542,-1.1565,-1.1598,-1.1591,-1.1548,-1.168,-1.162,-1.1683,-1.1683,-1.1713,-1.1711,-1.1897,-1.1727,-1.1727,-1.1727,-1.1726,0,-1.1322,-1.1387,-1.1373,-1.1417,-1.1489,-1.1471,-1.1544,-1.1551,-1.157,-1.1616,-1.1586,-1.1631,-1.1617,-1.1661,-1.1656,-1.173,-1.174,-1.1742,-1.174,-1.1746,-1.1746,-1.1762,-1.1754,-1.1731,-1.173,-1.1729,-1.1729,0,-1.1459,-1.1453,-1.1527,-1.1542,-1.1547,-1.16,-1.1613,-1.1656,-1.1656,-1.1715,-1.1728,-1.1729,-1.178,-1.1775,-1.1832,-1.1829,-1.1921,-1.1908,-1.1913,-1.191,-1.1974,-1.1969,-1.2177,-1.2205,-1.2017,-1.2018,-1.202,0,-1.1548,-1.1596,-1.1616,-1.1644,-1.1657,-1.1703,-1.173,-1.1715,-1.1745,-1.1777,-1.1816,-1.1864,-1.1902,-1.1986,-1.1993,-1.2038,-1.2027,-1.2097,-1.2034,-1.2038,-1.203,-1.2028,-1.2034,-1.211,-1.2112,-1.2114,-1.2115,0,-1.1706,-1.1701,-1.1739,-1.1778,-1.1811,-1.1841,-1.1868,-1.1893,-1.1882,-1.1917,-1.1968,-1.1997,-1.2056,-1.2106,-1.2148,-1.2162,-1.2138,-1.2135,-1.2152,-1.2159,-1.216,-1.2162,-1.1948,-1.2131,-1.2129,-1.2128,-1.2127,-1.2126,-1.1823,-1.1865,-1.1886,-1.1931,-1.195,-1.1976,-1.2017,-1.2023,-1.2064,-1.211,-1.21,-1.2158,-1.2184,-1.2239,-1.2257,-1.2304,-1.2279,-1.2304,-1.231,-1.2317,-1.2325,-1.2152,-1.2312,-1.2312,-1.2311,-1.2311,-1.231,0,-1.1981,-1.1993,-1.2034,-1.2073,-1.2109,-1.2082,-1.2111,-1.2144,-1.2195,-1.222,-1.2258,-1.2319,-1.2367,-1.2378,-1.2425,-1.2461,-1.2451,-1.2474,-1.2472,-1.2476,-1.2344,-1.2325,-1.2481,-1.2481,-1.2481,-1.2481,-1.2481,-1.2481,-1.2068,-1.2139,-1.2136,-1.2218,-1.2229,-1.2285,-1.2305,-1.233,-1.235,-1.2419,-1.2458,-1.2465,-1.2485,-1.2534,-1.2578,-1.258,-1.2599,-1.2627,-1.2625,-1.2502,-1.2485,-1.2469,-1.2451,-1.2631,-1.2631,-1.2753,-1.2755,-1.2755]},{"header":{"parameterUnit":"m.s-1","parameterCategory":1,"la1":30.2991,"la2":30.254,"lo1":-89.0895,"lo2":-89.0444,"dy":0.0017,"dx":0.0017,"nx":28,"ny":28,"refTime":"2024-06-11T03:00:00:Z","depth":0,"parameterNumber":3,"parameterNumberName":"V-component_of_WINDS"},"data":[0,0,0,0,0,0,0,0,0,0,0,0,0,0,0,0,0,0,0,0,0,0,0,0,0,0,0,0,0,0,0,0,0,0,0,0,0,0,0,0,0,0,0,0,0,0,0,0,0,0,0,0,0,0,0,0,0,0,2.8235,2.8235,0,2.8246,2.8246,2.8246,2.8266,2.8267,2.8267,2.8267,2.8278,2.8278,2.8278,0,0,0,0,0,0,0,0,0,0,0,0,0,2.8229,2.8229,2.8235,2.8235,2.8235,2.8246,2.8246,2.8246,2.8266,2.8267,2.8267,2.8268,2.8278,2.8278,2.8278,0,0,0,0,0,0,0,0,0,0,0,0,0,2.8235,2.8229,2.8234,2.8246,2.8247,2.8246,2.8246,2.8246,2.8266,2.8267,2.8267,2.8268,2.8278,2.8278,2.8278,2.8266,0,0,2.8278,2.8278,0,0,0,0,0,0,0,0,2.8235,2.8235,2.8244,2.8245,2.8247,2.8255,2.8248,2.8253,2.8266,2.8259,2.8267,2.8268,2.827,2.8271,2.8272,2.8266,2.8267,2.8278,2.8278,2.8278,2.8278,0,0,0,0,0,0,0,2.8234,2.8235,2.8239,2.8244,2.8246,2.8251,2.8252,2.8249,2.8261,2.826,2.8261,2.8262,2.8271,2.8272,2.8272,2.8267,2.8278,2.8278,2.8278,2.8278,2.8252,2.8252,0,0,0,0,0,0,2.8232,2.8234,2.8239,2.8239,2.8242,2.825,2.8252,2.8252,2.8261,2.8263,2.8262,2.8263,2.8271,2.8272,2.8272,2.8258,2.8278,2.8278,2.8277,2.8253,2.8252,2.8251,0,0,0,0,0,0,2.8232,2.8232,2.8238,2.8237,2.8238,2.825,2.825,2.8252,2.8253,2.8263,2.8265,2.826,2.8272,2.8273,2.8267,2.8259,2.8277,2.8277,2.8254,2.8253,2.8252,2.823,0,0,0,0,0,0,2.8232,2.8232,2.8228,2.8237,2.8238,2.8233,2.8249,2.8252,2.8253,2.8254,2.8262,2.8264,2.8272,2.8267,2.8267,2.8259,2.8277,2.8254,2.8253,2.8252,2.8231,2.8228,2.8226,0,0,0,0,0,2.8232,2.8221,2.8228,2.8228,2.8233,2.8233,2.8233,2.8244,2.8252,2.8247,2.8254,2.8264,2.826,2.8267,2.8267,2.8258,2.8255,2.8254,2.8252,2.8233,2.8229,2.8226,0,0,0,0,0,0,2.821,2.8223,2.823,2.8222,2.8226,2.8236,2.823,2.8239,2.8241,2.8243,2.8255,2.8257,2.825,2.8254,2.8261,2.8247,2.8259,2.8258,2.8244,2.8241,2.8238,2.8236,2.8277,0,0,0,0,0,2.8205,2.8203,2.8214,2.8206,2.8208,2.8219,2.8219,2.8227,2.8231,2.8233,2.8239,2.8243,2.8243,2.8242,2.8243,2.8233,2.8234,2.8227,2.8224,2.8222,2.822,2.8214,2.8211,2.8247,2.8247,2.8247,0,0,2.8193,2.82,2.8198,2.8202,2.8206,2.8204,2.822,2.8218,2.8216,2.8233,2.8228,2.8233,2.8238,2.823,2.8227,2.8233,2.821,2.822,2.8218,2.8217,2.8212,2.8209,2.8206,2.8246,2.8246,2.8246,0,0,2.817,2.8176,2.8169,2.8173,2.8179,2.8187,2.8185,2.8194,2.8198,2.8194,2.8206,2.8204,2.8204,2.8207,2.8208,2.8187,2.8196,2.8187,2.8172,2.8166,2.8163,2.816,2.8152,2.8149,2.8186,2.8186,2.8186,0,2.8155,2.8152,2.8165,2.8161,2.8163,2.8178,2.8172,2.8175,2.8181,2.8181,2.8188,2.8188,2.8192,2.8185,2.818,2.8181,2.8179,2.8185,2.8162,2.816,2.8158,2.815,2.8147,2.8184,2.8185,2.8185,2.8185,0,2.8132,2.8131,2.8125,2.813,2.8131,2.8126,2.8137,2.8137,2.8145,2.8151,2.8147,2.8153,2.8154,2.8154,2.8161,2.8147,2.8151,2.816,2.8172,2.8153,2.8145,2.8143,2.8183,2.8183,2.8183,2.8184,0,0,2.8095,2.8108,2.8106,2.8108,2.8116,2.8115,2.8111,2.8113,2.8112,2.8116,2.8111,2.8111,2.812,2.8121,2.813,2.8125,2.8106,2.8135,2.8135,2.8128,2.809,2.8082,2.8078,2.8113,2.8113,2.8112,2.8089,0,2.8073,2.8066,2.8078,2.8068,2.8066,2.8082,2.8078,2.8082,2.8089,2.8088,2.8095,2.8094,2.8106,2.8107,2.8103,2.811,2.8099,2.8112,2.8108,2.8108,2.8105,2.8074,2.8065,2.8043,2.8086,2.8086,2.8086,0,2.8046,2.8049,2.8039,2.8048,2.8047,2.8044,2.8046,2.8046,2.8051,2.8056,2.8058,2.8068,2.8064,2.8077,2.8071,2.808,2.8079,2.8083,2.8082,2.808,2.8094,2.807,2.8037,2.8033,2.8081,2.8082,2.8082,0,2.8018,2.8019,2.8013,2.8015,2.8026,2.8023,2.8027,2.8033,2.8033,2.8036,2.8036,2.8038,2.8039,2.804,2.805,2.8059,2.8042,2.8057,2.8045,2.8045,2.804,2.8039,2.8003,2.8042,2.8042,2.8042,2.8042,0,2.7991,2.7984,2.8001,2.7997,2.799,2.8003,2.7995,2.8001,2.8007,2.8004,2.8018,2.8015,2.8029,2.8028,2.8036,2.8029,2.803,2.8033,2.8035,2.8031,2.803,2.8029,2.803,2.8042,2.8042,2.8042,2.8042,0,2.7957,2.7969,2.7963,2.7974,2.7976,2.797,2.7979,2.7976,2.7984,2.798,2.798,2.7992,2.7991,2.8002,2.8003,2.8008,2.7997,2.8003,2.7995,2.7996,2.7983,2.7984,2.7944,2.7939,2.7983,2.7982,2.7982,0,2.7939,2.7934,2.7944,2.7943,2.7947,2.7946,2.7946,2.796,2.796,2.7966,2.7961,2.7962,2.7963,2.796,2.7969,2.7969,2.7974,2.796,2.7974,2.797,2.7972,2.7971,2.797,2.7956,2.7956,2.7955,2.7955,0,2.7903,2.7909,2.791,2.7912,2.7913,2.7915,2.7918,2.7917,2.7932,2.7931,2.793,2.7931,2.7932,2.7932,2.7935,2.7939,2.7949,2.7951,2.7948,2.7943,2.7938,2.7939,2.7985,2.7951,2.7952,2.7952,2.7952,2.7952,2.7876,2.7872,2.7878,2.7878,2.7882,2.7885,2.7882,2.789,2.789,2.7892,2.79,2.7898,2.7904,2.7908,2.7911,2.7909,2.7916,2.7912,2.7911,2.7909,2.7906,2.794,2.791,2.791,2.791,2.791,2.791,0,2.784,2.7845,2.7845,2.7849,2.7849,2.786,2.7865,2.7863,2.7861,2.7866,2.7867,2.7866,2.7866,2.7874,2.7875,2.7872,2.7877,2.7872,2.7871,2.7871,2.7901,2.7903,2.7868,2.7868,2.7868,2.7868,2.7868,2.7868,2.7821,2.7814,2.7821,2.7817,2.7822,2.782,2.7822,2.7824,2.7828,2.7826,2.7826,2.7832,2.7838,2.784,2.784,2.7843,2.7842,2.7835,2.7838,2.7865,2.7869,2.7873,2.7875,2.7835,2.7835,2.7809,2.7809,2.7808]}]]